Regional Weather Roundup
Issued by NWS Huntsville, AL

Home | Current Version | Previous Version | Text Only | Print | Product List | Glossary On
Versions: 1 2 3 4 5 6 7 8 9 10 11 12 13 14 15 16 17 18 19 20 21 22 23 24 25 26 27 28
000
ASUS44 KHUN 312210
RWRHUN

WEATHER ROUNDUP FOR THE TENNESSEE VALLEY
NATIONAL WEATHER SERVICE HUNTSVILLE AL
500 PM CDT FRI OCT 31 2014

ALZ001>004-312300-
NORTHWEST ALABAMA

CITY           SKY/WX    TMP DP  RH WIND       PRES   REMARKS
COURTLAND HCN    N/A     52 N/A N/A N7          N/A
RUSSELLVILLE     N/A     50 N/A N/A MISG        N/A
SHOALS AIRPORT CLOUDY    53  40  61 N10G20    30.08R
SHOALS TVA RES   N/A     52 N/A N/A MISG        N/A
$$

ALZ005>007-016-312300-
NORTH CENTRAL ALABAMA

CITY           SKY/WX    TMP DP  RH WIND       PRES   REMARKS
DECATUR AP     CLOUDY    51  42  71 NW20      30.04R
HUNTSVILLE AP  CLOUDY    52  44  74 NW14G22   30.03R
HUN NWS/UAH      N/A     50  43  77 NW8         N/A
MERIDIANVILLE  MOCLDY    46  41  81 NW14G21   30.02R
REDSTONE ARSN  CLOUDY    49  45  84 NW16      30.02R
VINEMONT AP    LGT RAIN  48  46  92 NW8G16    30.04R
$$

ALZ008>010-312300-
NORTHEAST ALABAMA

CITY           SKY/WX    TMP DP  RH WIND       PRES   REMARKS
ALBERTVILLE    RAIN      50  50 100 N18G32    29.98R
FORT PAYNE     CLOUDY    52  43  71 NW14G21   29.96R
SCOTTSBORO AP  LGT RAIN  48  45  87 N5        30.00R
SCOTTSBORO HCN   N/A     50 N/A N/A MISG        N/A
VALLEY HEAD      N/A     52 N/A N/A MISG        N/A
$$

TNZ076-096-097-312300-
SOUTHEASTERN MIDDLE TENNESSEE

CITY           SKY/WX    TMP DP  RH WIND       PRES   REMARKS
TULLAHOMA      CLOUDY    39  37  93 N18       30.04R WCI  30
WINCHESTER     CLOUDY    43  39  87 N15       30.03R
$$

...SURROUNDING SITES...

CITY           SKY/WX    TMP DP  RH WIND       PRES   REMARKS
ATLANTA        MOCLDY    59  42  53 NW10      29.89R
ANNISTON       CLOUDY    59  43  55 W10       29.94S
BIRMINGHAM     CLOUDY    60  42  51 NW13      29.99R
CHATTANOOGA    CLOUDY    51  43  74 NW16G26   29.96R
CORINTH        PTSUNNY   54  37  54 NW16G26   30.12R
DALTON         LGT RAIN  50  48  93 NW3       29.92R
GADSDEN        CLOUDY    55  45  67 N10G17    29.97R
GOLDEN TRNGL   PTSUNNY   59  46  63 NW17G26   30.06R
HALEYVILLE     CLOUDY    47  45  93 CALM      30.08R
JACKSON TN     SUNNY     50  26  39 N24G31    30.18R
MEMPHIS        MOSUNNY   55  27  34 N23G30    30.19R
NASHVILLE      MOCLDY    45  27  49 NW17G29   30.10R
OXFORD MS      FAIR      54  37  54 N15G22    30.16R
ROME           CLOUDY    56  45  66 NW14G22   29.92R
SAVANNAH       MOSUNNY   52  21  30 NW14      30.12R
SELMER         MOSUNNY   51  30  44 NW17      30.13
TUPELO         CLOUDY    55  41  59 N12G21    30.11R
TUSCALOOSA     CLOUDY    59  50  72 N9        30.02R
$$

...GULF COAST WEATHER...

CITY           SKY/WX    TMP DP  RH WIND       PRES   REMARKS
GULFPORT       SUNNY     73  44  35 NW16G22   29.98R
PASCAGOULA     SUNNY     72  44  36 NW10G18   29.96R
MOBILE         MOSUNNY   70  45  40 NW12G21   29.97R
GULF SHORES    PTCLDY    73  44  36 NW10G18   29.93R
PENSACOLA      PTSUNNY   71  48  43 VRB7      29.93R
DESTIN         CLOUDY    73  50  44 W10G17    29.91R
PANAMA CITY    SUNNY     71  49  46 W15       29.91R
APPALACHICOLA  SUNNY     73  48  41 W8        29.89R
$$




USA.gov is the U.S. government's official web portal to all federal, state and local government web resources and services.